Weather History for Delaware, OH

Change the Weather History Date:

Tuesday, July 23, 2013

  Actual Average Record
Temperature  
Mean Temperature 74 °F -  
Max Temperature 86 °F 83 °F 97 °F (1991)
Min Temperature 62 °F 62 °F 46 °F (1947)
Cooling Degree Days 9    
Growing Degree Days 24 (Base 50)    
Moisture  
Dew Point 65 °F    
Average Humidity 78    
Maximum Humidity 100    
Minimum Humidity 48    
Precipitation  
Precipitation 0.00 in - - ()
Sea Level Pressure  
Sea Level Pressure 29.79 in    
Wind  
Wind Speed 3 mph (West)    
Max Wind Speed 14 mph    
Max Gust Speed 22 mph    
Visibility 7 miles    
Events Fog    
Averages and records for this station are not official NWS values.
T = Trace of Precipitation, MM = Missing Value Source: NWS Daily Summary

Daily Weather History Graph

Daily Weather History Graph

Search for Another Location

Airport:

Trip Planner

Search our weather history database for the weather conditions in past years. The results will help you decide how hot, cold, wet, or windy it might be!

Date:

Astronomy

Jul. 23, 2013 Rise Set
Actual Time 6:22 AM EDT 8:55 PM EDT
Civil Twilight 5:50 AM EDT 9:26 PM EDT
Nautical Twilight 5:11 AM EDT 10:05 PM EDT
Astronomical Twilight 4:28 AM EDT 10:48 PM EDT
Moon 9:22 PM EDT (7/23) 7:29 AM EDT (7/23)
Length of Visible Light 15h 35m
Length of Day
14h 32m
Full, 99% of the Moon is Illuminated
Jul 23
Full
Jul 29
Last Quarter
Aug 6
New
Aug 14
First Quarter
Aug 20
Full

Hourly Weather History & Observations

Time (EDT) Temp. Heat Index Dew Point Humidity Pressure Visibility Wind Dir Wind Speed Gust Speed Precip Events Conditions
12:15 AM 66.2 °F - 64.4 °F 94% 29.83 in 4.0 mi Calm Calm - N/A   Clear
12:34 AM 64.4 °F - 62.6 °F 94% 29.82 in 3.0 mi Calm Calm - N/A   Clear
12:55 AM 64.4 °F - 62.6 °F 94% 29.82 in 4.0 mi Calm Calm - N/A   Clear
1:15 AM 64.4 °F - 62.6 °F 94% 29.82 in 2.5 mi Calm Calm - N/A   Clear
1:34 AM 64.4 °F - 62.6 °F 94% 29.82 in 3.0 mi Calm Calm - N/A   Clear
1:55 AM 64.4 °F - 62.6 °F 94% 29.82 in 2.5 mi Calm Calm - N/A   Clear
2:14 AM 64.4 °F - 62.6 °F 94% 29.82 in 2.5 mi Calm Calm - N/A   Clear
2:34 AM 62.6 °F - 60.8 °F 94% 29.82 in 4.0 mi Calm Calm - N/A   Clear
2:55 AM 62.6 °F - 60.8 °F 94% 29.83 in 1.2 mi Calm Calm - N/A   Mist
3:15 AM 62.6 °F - 60.8 °F 94% 29.82 in 1.0 mi Calm Calm - N/A   Mostly Cloudy
3:34 AM 62.6 °F - 60.8 °F 94% 29.82 in 0.5 mi Calm Calm - N/A Fog Fog
3:55 AM 64.4 °F - 62.6 °F 94% 29.82 in 0.2 mi Calm Calm - N/A Fog Fog
4:14 AM 64.4 °F - 62.6 °F 94% 29.81 in 0.2 mi Calm Calm - N/A Fog Fog
4:34 AM 64.4 °F - 62.6 °F 94% 29.80 in 1.2 mi Calm Calm - N/A   Overcast
4:55 AM 64.4 °F - 62.6 °F 94% 29.81 in 0.2 mi Calm Calm - N/A Fog Fog
5:14 AM 64.4 °F - 64.4 °F 100% 29.81 in 0.2 mi Calm Calm - N/A Fog Fog
5:34 AM 64.4 °F - 62.6 °F 94% 29.81 in 0.5 mi Calm Calm - N/A Fog Fog
5:55 AM 64.4 °F - 62.6 °F 94% 29.81 in 0.5 mi Calm Calm - N/A Fog Fog
6:14 AM 64.4 °F - 62.6 °F 94% 29.81 in 0.5 mi Calm Calm - N/A Fog Fog
6:34 AM 64.4 °F - 62.6 °F 94% 29.82 in 0.2 mi Calm Calm - N/A Fog Fog
6:55 AM 64.4 °F - 62.6 °F 94% 29.82 in 0.2 mi Calm Calm - N/A Fog Fog
7:14 AM 64.4 °F - 62.6 °F 94% 29.81 in 0.2 mi Calm Calm - N/A Fog Fog
7:34 AM 66.2 °F - 64.4 °F 94% 29.80 in 0.8 mi Calm Calm - N/A   Overcast
7:55 AM 66.2 °F - 64.4 °F 94% 29.81 in 1.0 mi Calm Calm - N/A   Overcast
8:14 AM 68.0 °F - 64.4 °F 88% 29.81 in 1.5 mi Calm Calm - N/A   Overcast
8:34 AM 68.0 °F - 64.4 °F 88% 29.80 in 1.5 mi Calm Calm - N/A   Overcast
8:55 AM 68.0 °F - 66.2 °F 94% 29.79 in 2.5 mi South 4.6 mph - N/A   Overcast
9:14 AM 69.8 °F - 68.0 °F 94% 29.82 in 3.0 mi WSW 3.5 mph - N/A   Overcast
9:35 AM 69.8 °F - 68.0 °F 94% 29.81 in 4.0 mi SW 3.5 mph - N/A   Mostly Cloudy
9:55 AM 71.6 °F - 69.8 °F 94% 29.81 in 7.0 mi SW 4.6 mph - N/A   Scattered Clouds
10:14 AM 73.4 °F - 69.8 °F 88% 29.80 in 10.0 mi WSW 5.8 mph - N/A   Scattered Clouds
10:35 AM 77.0 °F - 69.8 °F 78% 29.80 in 10.0 mi SW 4.6 mph - N/A   Scattered Clouds
10:55 AM 78.8 °F - 69.8 °F 74% 29.80 in 10.0 mi WSW 5.8 mph - N/A   Scattered Clouds
11:14 AM 80.6 °F 83.9 °F 69.8 °F 70% 29.80 in 10.0 mi WSW 8.1 mph - N/A   Scattered Clouds
11:35 AM 80.6 °F 83.9 °F 69.8 °F 70% 29.80 in 10.0 mi WSW 6.9 mph - N/A   Mostly Cloudy
11:55 AM 80.6 °F 83.9 °F 69.8 °F 70% 29.80 in 10.0 mi WSW 9.2 mph - N/A   Mostly Cloudy
12:14 PM 78.8 °F - 69.8 °F 74% 29.80 in 10.0 mi WSW 5.8 mph - N/A   Mostly Cloudy
12:35 PM 80.6 °F 83.9 °F 69.8 °F 70% 29.80 in 10.0 mi WSW 12.7 mph 17.3 mph N/A   Mostly Cloudy
12:54 PM 80.6 °F 83.2 °F 68.0 °F 65% 29.80 in 10.0 mi WSW 9.2 mph 16.1 mph N/A   Mostly Cloudy
1:14 PM 82.4 °F 86.3 °F 69.8 °F 66% 29.79 in 10.0 mi WSW 10.4 mph 17.3 mph N/A   Mostly Cloudy
1:35 PM 82.4 °F 86.3 °F 69.8 °F 66% 29.78 in 10.0 mi WSW 10.4 mph 16.1 mph N/A   Scattered Clouds
1:54 PM 84.2 °F 89.6 °F 71.6 °F 66% 29.77 in 10.0 mi SW 8.1 mph - N/A   Clear
2:14 PM 82.4 °F 86.3 °F 69.8 °F 66% 29.76 in 10.0 mi WSW 8.1 mph 16.1 mph N/A   Scattered Clouds
2:35 PM 86.0 °F 89.4 °F 68.0 °F 55% 29.75 in 10.0 mi West 8.1 mph 18.4 mph N/A   Scattered Clouds
2:54 PM 84.2 °F 87.3 °F 68.0 °F 58% 29.75 in 10.0 mi West 8.1 mph - N/A   Scattered Clouds
3:14 PM 86.0 °F 89.4 °F 68.0 °F 55% 29.75 in 10.0 mi SW 10.4 mph - N/A   Scattered Clouds
3:35 PM 86.0 °F 89.4 °F 68.0 °F 55% 29.74 in 10.0 mi WSW 8.1 mph 19.6 mph N/A   Clear
3:54 PM 86.0 °F 89.4 °F 68.0 °F 55% 29.73 in 10.0 mi West 9.2 mph - N/A   Clear
4:14 PM 86.0 °F 89.4 °F 68.0 °F 55% 29.73 in 10.0 mi WSW 11.5 mph 16.1 mph N/A   Scattered Clouds
4:35 PM 84.2 °F 88.4 °F 69.8 °F 62% 29.72 in 10.0 mi West 11.5 mph - N/A   Scattered Clouds
4:54 PM 86.0 °F 89.4 °F 68.0 °F 55% 29.72 in 10.0 mi West 11.5 mph 20.7 mph N/A   Clear
5:14 PM 86.0 °F 89.4 °F 68.0 °F 55% 29.72 in 10.0 mi West 8.1 mph 17.3 mph N/A   Scattered Clouds
5:35 PM 86.0 °F 87.3 °F 64.4 °F 48% 29.72 in 10.0 mi WNW 13.8 mph 18.4 mph N/A   Scattered Clouds
5:54 PM 84.2 °F 85.6 °F 64.4 °F 51% 29.72 in 10.0 mi West 12.7 mph 19.6 mph N/A   Scattered Clouds
6:14 PM 80.6 °F 82.3 °F 64.4 °F 58% 29.72 in 10.0 mi NW 9.2 mph 18.4 mph N/A   Mostly Cloudy
6:35 PM 82.4 °F 84.6 °F 66.2 °F 58% 29.72 in 10.0 mi WNW 10.4 mph 17.3 mph N/A   Scattered Clouds
6:54 PM 80.6 °F 82.3 °F 64.4 °F 58% 29.72 in 10.0 mi NW 12.7 mph 21.9 mph N/A   Scattered Clouds
7:14 PM 80.6 °F 82.3 °F 64.4 °F 58% 29.72 in 10.0 mi West 9.2 mph 17.3 mph N/A   Clear
7:35 PM 78.8 °F - 62.6 °F 57% 29.74 in 10.0 mi WNW 9.2 mph - N/A   Clear
7:54 PM 78.8 °F - 62.6 °F 57% 29.74 in 10.0 mi WNW 9.2 mph - N/A   Clear
8:14 PM 77.0 °F - 62.6 °F 61% 29.74 in 10.0 mi WNW 8.1 mph - N/A   Clear
8:35 PM 73.4 °F - 62.6 °F 69% 29.75 in 10.0 mi NW 5.8 mph - N/A   Clear
8:54 PM 73.4 °F - 64.4 °F 73% 29.75 in 10.0 mi NW 6.9 mph - N/A   Clear
9:15 PM 73.4 °F - 62.6 °F 69% 29.75 in 10.0 mi NW 9.2 mph - N/A   Clear
9:35 PM 71.6 °F - 62.6 °F 73% 29.77 in 10.0 mi NW 8.1 mph - N/A   Clear
9:54 PM 71.6 °F - 64.4 °F 78% 29.79 in 10.0 mi NW 6.9 mph - N/A   Clear
10:15 PM 71.6 °F - 64.4 °F 78% 29.80 in 10.0 mi NNW 5.8 mph - N/A   Scattered Clouds
10:35 PM 71.6 °F - 64.4 °F 78% 29.81 in 10.0 mi NNW 6.9 mph - N/A   Scattered Clouds
10:54 PM 69.8 °F - 64.4 °F 83% 29.81 in 10.0 mi North 5.8 mph - N/A   Scattered Clouds
11:15 PM 69.8 °F - 62.6 °F 78% 29.81 in 10.0 mi North 5.8 mph - N/A   Clear
11:35 PM 68.0 °F - 62.6 °F 83% 29.82 in 10.0 mi NNW 4.6 mph - N/A   Clear
11:54 PM 68.0 °F - 62.6 °F 83% 29.83 in 10.0 mi NW 4.6 mph - N/A   Clear